Flag for Finland Weather past 2 weeks in Rovaniemi, Finland

30 °F


Feels Like: 30 °F
Forecast: 29 / 41 °F
Wind: 2 mph from North

Location: Kemi Airport

Current Time: Oct 14, 2015 at 2:28:27 AM

Latest Report: Oct 14, 2015 at 1:20 AM

Visibility: 10 mi

Pressure: 30.09 "Hg

Humidity: 100%

Dew point: 30 °F

Location of RovaniemiLocation

Historic Weather in Rovaniemi — Graph


Rovaniemi temperature yesterday

Maximum temperature yesterday: 48 °F (at 1:50 PM)
Minimum temperature yesterday: 27 °F (at 6:20 AM)
Average temperature yesterday: 38 °F

Past Weeks' High & Low Weather Summary

High55 °F (Sep 30, 3:50 AM)100% (Sep 29, 1:50 AM)30.60 "Hg (Sep 29, 1:50 AM)
Low16 °F (Oct 9, 6:20 AM)46% (Oct 3, 3:20 PM)28.91 "Hg (Oct 2, 3:50 PM)
Average38 °F83%30.12 "Hg
* Reported Sep 29 12:50 AM — Oct 14 12:50 AM, Rovaniemi, Weather by CustomWeather, © 2015

Note: Actual official high and low records may vary slightly from our data, if they occured in-between our weather recording intervals... More about our weather records


Rovaniemi weather history for previous 24 hours

Time TempWeatherWind HumidityBarometerVisibility
12:50 AM
Wed, Oct 14
34 °FClear.No wind93%30.09 "Hg10 mi
12:20 AM36 °FClear.1 mph100%30.09 "Hg10 mi
11:50 PM
Tue, Oct 13
39 °FClear.3 mph93%30.09 "Hg10 mi
11:20 PM41 °FClear.5 mph87%30.09 "Hg10 mi
10:50 PM41 °FClear.5 mph93%30.09 "Hg10 mi
10:32 PM41 °FClear.5 mph93%30.09 "Hg10 mi
9:50 PM43 °FClear.3 mph93%30.09 "Hg10 mi
9:20 PM43 °FClear.3 mph100%30.09 "Hg10 mi
8:50 PM45 °FClear.3 mph93%30.09 "Hg10 mi
8:20 PM45 °FLight rain. Overcast.2 mph93%30.09 "HgN/A
7:50 PM45 °FClear.3 mph93%30.09 "Hg10 mi
7:20 PM45 °FPassing clouds.5 mph100%30.09 "HgN/A
6:50 PM45 °FPassing clouds.6 mph100%30.09 "HgN/A
6:20 PM45 °FPassing clouds.6 mph93%30.09 "HgN/A
5:50 PM45 °FPassing clouds.6 mph100%30.09 "HgN/A
5:20 PM46 °FPassing clouds.8 mph93%30.09 "HgN/A
4:50 PM46 °FPassing clouds.8 mph87%30.12 "HgN/A
4:20 PM46 °FPassing clouds.8 mph93%30.12 "HgN/A
3:50 PM46 °FPassing clouds.8 mph87%30.12 "HgN/A
3:20 PM48 °FPassing clouds.9 mph82%30.12 "HgN/A
2:59 PM46 °FPassing clouds.8 mph87%30.12 "HgN/A
2:20 PM48 °FPassing clouds.8 mph82%30.12 "HgN/A
1:50 PM48 °FPassing clouds.7 mph76%30.12 "HgN/A
1:20 PM46 °FPassing clouds.9 mph87%30.15 "HgN/A
12:50 PM46 °FPassing clouds.5 mph87%30.15 "HgN/A
12:20 PM45 °FPassing clouds.7 mph93%30.15 "HgN/A
11:50 AM45 °FPassing clouds.6 mph100%30.15 "HgN/A
11:20 AM41 °FScattered clouds.1 mph100%30.15 "Hg4 mi
10:50 AM36 °FPartly sunny.No wind100%30.15 "Hg3 mi
10:20 AM32 °FPartly sunny.2 mph100%30.18 "Hg6 mi
9:50 AM32 °FPartly sunny.1 mph100%30.18 "Hg4 mi
9:20 AM32 °FPartly sunny.2 mph100%30.18 "Hg4 mi
8:50 AM32 °FLight freezing rain. Dense fog.3 mph100%30.18 "Hg1 mi
8:20 AM30 °FIce fog.2 mph100%30.18 "Hg1 mi
7:50 AM28 °FLight freezing rain. Ice fog.1 mph100%30.18 "Hg3 mi
7:20 AM28 °FIce fog.1 mph100%30.18 "Hg2 mi
6:50 AM28 °FIce fog.1 mph100%30.18 "Hg1 mi
6:20 AM27 °FIce fog.No wind100%30.18 "Hg0 mi
5:50 AM28 °FIce fog.No wind100%30.18 "Hg0 mi
5:20 AM30 °FIce fog.No wind100%30.18 "Hg0 mi
4:50 AM28 °FIce fog.No wind100%30.18 "Hg0 mi
4:20 AM30 °FIce fog.No wind100%30.18 "Hg0 mi
3:50 AM32 °FLight freezing rain. Dense fog.2 mph100%30.18 "Hg1 mi
3:20 AM30 °FIce fog.1 mph100%30.18 "Hg0 mi
2:50 AM28 °FIce fog.1 mph100%30.21 "Hg0 mi
2:20 AM28 °FIce fog.3 mph100%30.21 "Hg0 mi
Weather by CustomWeather, © 2015

See weather overviewHow to use our weather pages